This is the latest recevied weather packets stored in our database for station/object KB1RMA-13. If no packets are shown the sender has not sent any weather packets the latest 10 day(s).
| Time | Temp. | Humidity | Pressure | Rain* | Wind** | Luminosity | Snow |
|---|---|---|---|---|---|---|---|
| 1777901530 | 16.11° C | 43% | 1009.6 hPa | 0 mm | - | 105 W/m² | - |
| 1777901227 | 16.11° C | 42% | 1009.7 hPa | 0 mm | - | 101 W/m² | - |
| 1777900924 | 15.56° C | 45% | 1009.8 hPa | 0 mm | - | 97 W/m² | - |
| 1777900622 | 15° C | 44% | 1009.8 hPa | 0 mm | - | 558 W/m² | - |
| 1777900318 | 15° C | 46% | 1009.9 hPa | 0 mm | - | 553 W/m² | - |
| 1777900015 | 15° C | 45% | 1009.9 hPa | 0 mm | - | 531 W/m² | - |
| 1777899711 | 15.56° C | 45% | 1010.2 hPa | 0 mm | - | 517 W/m² | - |
| 1777899409 | 14.44° C | 47% | 1009.9 hPa | 0 mm | - | 91 W/m² | - |
| 1777899107 | 14.44° C | 46% | 1010.2 hPa | 0 mm | - | 91 W/m² | - |
| 1777898804 | 13.89° C | 48% | 1010.2 hPa | 0 mm | - | 469 W/m² | - |
| 1777898501 | 13.89° C | 46% | 1010.5 hPa | 0 mm | - | 447 W/m² | - |
| 1777898199 | 13.89° C | 48% | 1010.3 hPa | 0 mm | - | 433 W/m² | - |
| 1777897896 | 13.33° C | 48% | 1010.4 hPa | 0 mm | - | 409 W/m² | - |
| 1777897592 | 12.78° C | 49% | 1010.7 hPa | 0 mm | - | 394 W/m² | - |
| 1777897287 | 12.78° C | 49% | 1010.7 hPa | 0 mm | - | 367 W/m² | - |
| 1777896984 | 12.22° C | 52% | 1010.9 hPa | 0 mm | - | 362 W/m² | - |
| 1777896681 | 12.22° C | 53% | 1010.7 hPa | 0 mm | - | 341 W/m² | - |
| 1777896378 | 11.67° C | 54% | 1010.7 hPa | 0 mm | - | 325 W/m² | - |
| 1777896076 | 11.11° C | 54% | 1011 hPa | 0 mm | - | 298 W/m² | - |
| 1777895774 | 11.11° C | 55% | 1010.9 hPa | 0 mm | - | 281 W/m² | - |
| 1777895471 | 10.56° C | 55% | 1011.2 hPa | 0 mm | - | 281 W/m² | - |
| 1777895169 | 10.56° C | 55% | 1010.8 hPa | 0 mm | - | 110 W/m² | - |
| 1777894865 | 10° C | 57% | 1010.9 hPa | 0 mm | - | 231 W/m² | - |
| 1777894562 | 9.44° C | 58% | 1010.9 hPa | 0 mm | - | 84 W/m² | - |
| 1777894260 | 9.44° C | 59% | 1010.9 hPa | 0 mm | - | 92 W/m² | - |
* Rain latest hour (hover to see other rain measurements)
** Current wind speed in m/s (hover to see current wind gust speed)